TimeCDT,TemperatureF,Dew PointF,Humidity,Sea Level PressureIn,VisibilityMPH,Wind Direction,Wind SpeedMPH,Gust SpeedMPH,PrecipitationIn,Events,Conditions,WindDirDegrees,DateUTC
12:15 AM,68.0,62.6,83,30.11,10.0,SW,3.5,-,N/A,,Mostly Cloudy,230,2012-10-05 05:15:00
12:35 AM,68.0,60.8,78,30.11,10.0,Calm,Calm,-,N/A,,Mostly Cloudy,0,2012-10-05 05:35:00
12:55 AM,68.0,60.8,78,30.10,10.0,Calm,Calm,-,N/A,,Mostly Cloudy,0,2012-10-05 05:55:00
1:15 AM,68.0,60.8,78,30.11,10.0,Calm,Calm,-,N/A,,Scattered Clouds,0,2012-10-05 06:15:00
1:35 AM,68.0,60.8,78,30.10,10.0,Calm,Calm,-,N/A,,Scattered Clouds,0,2012-10-05 06:35:00
1:55 AM,68.0,60.8,78,30.10,10.0,Calm,Calm,-,N/A,,Scattered Clouds,0,2012-10-05 06:55:00
2:15 AM,68.0,60.8,78,30.10,10.0,Calm,Calm,-,N/A,,Scattered Clouds,0,2012-10-05 07:15:00
2:35 AM,68.0,60.8,78,30.10,10.0,West,3.5,-,N/A,,Scattered Clouds,260,2012-10-05 07:35:00
3:15 AM,68.0,59.0,73,30.09,10.0,West,4.6,-,N/A,,Scattered Clouds,260,2012-10-05 08:15:00
3:35 AM,66.2,57.2,73,30.09,10.0,West,4.6,-,N/A,,Scattered Clouds,260,2012-10-05 08:35:00
3:55 AM,66.2,59.0,78,30.09,10.0,Calm,Calm,-,N/A,,Mostly Cloudy,0,2012-10-05 08:55:00
4:15 AM,64.4,59.0,83,30.08,10.0,Calm,Calm,-,N/A,,Mostly Cloudy,0,2012-10-05 09:15:00
4:35 AM,64.4,59.0,83,30.08,10.0,Calm,Calm,-,N/A,,Scattered Clouds,0,2012-10-05 09:35:00
4:55 AM,64.4,59.0,83,30.07,10.0,WSW,3.5,-,N/A,,Mostly Cloudy,240,2012-10-05 09:55:00
5:15 AM,64.4,57.2,77,30.07,10.0,West,3.5,-,N/A,,Overcast,260,2012-10-05 10:15:00
5:35 AM,62.6,55.4,77,30.07,10.0,SW,3.5,-,N/A,,Mostly Cloudy,220,2012-10-05 10:35:00
5:55 AM,62.6,55.4,77,30.08,10.0,WSW,4.6,-,N/A,,Overcast,240,2012-10-05 10:55:00
6:15 AM,62.6,53.6,72,30.08,10.0,WSW,5.8,-,N/A,,Overcast,240,2012-10-05 11:15:00
6:35 AM,62.6,53.6,72,30.08,10.0,West,6.9,-,N/A,,Overcast,260,2012-10-05 11:35:00
6:55 AM,62.6,53.6,72,30.08,10.0,WSW,6.9,-,N/A,,Overcast,250,2012-10-05 11:55:00
7:15 AM,60.8,53.6,77,30.07,10.0,WSW,5.8,-,N/A,Thunderstorm,Overcast,250,2012-10-05 12:15:00
7:35 AM,60.8,51.8,72,30.08,10.0,West,6.9,-,N/A,,Overcast,260,2012-10-05 12:35:00
7:55 AM,60.8,51.8,72,30.08,10.0,West,9.2,-,N/A,,Overcast,260,2012-10-05 12:55:00
8:15 AM,60.8,51.8,72,30.08,10.0,West,8.1,-,N/A,Thunderstorm,Thunderstorm,260,2012-10-05 13:15:00
8:35 AM,59.0,55.4,88,30.08,3.0,West,6.9,-,0.16,Rain-Thunderstorm,Thunderstorms and Rain,270,2012-10-05 13:35:00
8:55 AM,59.0,55.4,88,30.08,10.0,West,4.6,-,0.16,Rain-Thunderstorm,Light Thunderstorms and Rain,270,2012-10-05 13:55:00
9:35 AM,59.0,55.4,88,30.09,10.0,WNW,8.1,-,N/A,Thunderstorm,Overcast,290,2012-10-05 14:35:00
10:15 AM,59.0,53.6,82,30.09,10.0,North,6.9,-,N/A,Thunderstorm,Overcast,350,2012-10-05 15:15:00
10:35 AM,59.0,53.6,82,30.09,10.0,NW,9.2,-,N/A,,Overcast,320,2012-10-05 15:35:00
10:55 AM,59.0,51.8,77,30.09,10.0,North,8.1,-,N/A,,Overcast,350,2012-10-05 15:55:00
11:15 AM,59.0,51.8,77,30.10,10.0,NW,9.2,-,N/A,,Overcast,320,2012-10-05 16:15:00
11:35 AM,57.2,51.8,82,30.10,10.0,NNW,9.2,-,N/A,,Overcast,340,2012-10-05 16:35:00
11:55 AM,57.2,53.6,88,30.10,7.0,NNW,8.1,-,N/A,,Overcast,330,2012-10-05 16:55:00
12:15 PM,55.4,53.6,94,30.10,4.0,NNW,6.9,-,N/A,,Overcast,330,2012-10-05 17:15:00
12:35 PM,55.4,53.6,94,30.10,4.0,NNW,5.8,-,N/A,Rain,Light Rain,330,2012-10-05 17:35:00
12:55 PM,55.4,55.4,100,30.10,3.0,WNW,5.8,-,N/A,,Overcast,290,2012-10-05 17:55:00
1:15 PM,55.4,55.4,100,30.10,3.0,NW,8.1,-,N/A,,Overcast,310,2012-10-05 18:15:00
1:35 PM,55.4,53.6,94,30.10,7.0,NW,9.2,-,N/A,Rain,Rain,310,2012-10-05 18:35:00
1:55 PM,55.4,53.6,94,30.10,3.0,NW,9.2,-,N/A,,Overcast,320,2012-10-05 18:55:00
2:15 PM,55.4,53.6,94,30.10,2.0,NNW,9.2,-,N/A,,Overcast,340,2012-10-05 19:15:00
2:35 PM,55.4,53.6,94,30.11,3.0,NW,11.5,-,N/A,,Overcast,320,2012-10-05 19:35:00
2:55 PM,53.6,51.8,94,30.10,2.0,NNW,11.5,-,N/A,,Drizzle,340,2012-10-05 19:55:00
3:15 PM,53.6,53.6,100,30.11,2.5,NW,6.9,-,N/A,,Light Drizzle,320,2012-10-05 20:15:00
3:35 PM,53.6,51.8,94,30.11,7.0,NNW,9.2,-,N/A,,Overcast,340,2012-10-05 20:35:00
3:55 PM,53.6,50.0,88,30.12,10.0,NNW,10.4,-,N/A,,Overcast,340,2012-10-05 20:55:00
4:15 PM,53.6,50.0,88,30.11,10.0,North,12.7,17.3,N/A,,Overcast,350,2012-10-05 21:15:00
4:35 PM,53.6,50.0,88,30.12,10.0,NNW,13.8,-,N/A,,Overcast,340,2012-10-05 21:35:00
4:55 PM,53.6,48.2,82,30.12,10.0,North,6.9,-,N/A,,Overcast,350,2012-10-05 21:55:00
5:15 PM,53.6,46.4,77,30.12,10.0,North,6.9,17.3,N/A,,Overcast,360,2012-10-05 22:15:00
5:35 PM,53.6,46.4,77,30.13,10.0,NNE,4.6,-,N/A,,Overcast,20,2012-10-05 22:35:00
5:55 PM,53.6,46.4,77,30.13,10.0,North,9.2,-,N/A,,Overcast,360,2012-10-05 22:55:00
6:15 PM,53.6,46.4,77,30.14,10.0,North,8.1,17.3,N/A,,Overcast,360,2012-10-05 23:15:00
6:35 PM,53.6,46.4,77,30.15,10.0,North,5.8,-,N/A,,Overcast,360,2012-10-05 23:35:00
6:55 PM,53.6,46.4,77,30.15,10.0,NNE,6.9,-,N/A,,Overcast,20,2012-10-05 23:55:00
7:15 PM,53.6,44.6,72,30.16,10.0,North,4.6,19.6,N/A,,Overcast,10,2012-10-06 00:15:00
7:35 PM,53.6,46.4,77,30.17,10.0,North,5.8,-,N/A,,Overcast,10,2012-10-06 00:35:00
7:55 PM,51.8,44.6,76,30.17,10.0,NNE,6.9,-,N/A,,Overcast,20,2012-10-06 00:55:00
8:15 PM,51.8,44.6,76,30.18,10.0,North,4.6,-,N/A,,Overcast,10,2012-10-06 01:15:00
8:35 PM,51.8,44.6,76,30.19,10.0,North,9.2,-,N/A,,Overcast,360,2012-10-06 01:35:00
8:55 PM,51.8,42.8,71,30.20,10.0,North,8.1,17.3,N/A,,Overcast,360,2012-10-06 01:55:00
9:15 PM,51.8,42.8,71,30.20,10.0,North,9.2,-,N/A,,Overcast,360,2012-10-06 02:15:00
9:35 PM,50.0,42.8,76,30.21,10.0,North,5.8,-,N/A,,Overcast,360,2012-10-06 02:35:00
9:55 PM,50.0,41.0,71,30.21,10.0,NNE,8.1,-,N/A,,Overcast,30,2012-10-06 02:55:00
10:15 PM,50.0,41.0,71,30.22,10.0,NNE,4.6,-,N/A,,Overcast,20,2012-10-06 03:15:00
10:35 PM,50.0,41.0,71,30.22,10.0,NNE,6.9,-,N/A,,Overcast,30,2012-10-06 03:35:00
10:55 PM,50.0,41.0,71,30.22,10.0,NNE,4.6,-,N/A,,Overcast,30,2012-10-06 03:55:00
11:15 PM,48.2,41.0,76,30.22,10.0,NNE,6.9,-,N/A,,Mostly Cloudy,30,2012-10-06 04:15:00
11:35 PM,48.2,41.0,76,30.22,10.0,NNE,3.5,-,N/A,,Clear,30,2012-10-06 04:35:00
11:55 PM,46.4,41.0,81,30.22,10.0,Calm,Calm,-,N/A,,Clear,0,2012-10-06 04:55:00